Regional Weather Roundup
Issued by NWS

Home | Current Version | Previous Version | Text Only | Print | Product List | Glossary Off
Versions: 1 2 3 4 5 6 7 8 9 10 11 12 13 14 15 16 17 18 19 20 21 22 23 24 25 26 27 28 29 30 31 32 33 34 35 36 37 38 39 40 41 42 43 44 45 46 47 48 49 50

000
ASUS45 KTFX 242304
RWRMT
MONTANA HOURLY WEATHER ROUNDUP
NATIONAL WEATHER SERVICE GREAT FALLS MT
504 PM MDT THU JUL 24 2014

NOTE: "FAIR" INDICATES FEW OR NO CLOUDS BELOW 12000 FEET WITH NO
SIGNIFICANT WEATHER AND/OR OBSTRUCTIONS TO VISIBILITY.

* THESE STATIONS ARE NOT UNDER NWS QUALITY CONTROL. THEY DO NOT
   REPORT WEATHER SUCH AS PRECIPITATION OR FOG.

MTZ001>007-043-250000-
WEST OF THE DIVIDE
CITY           SKY/WX    TMP DP  RH WIND       PRES   REMARKS
KALISPELL      MOCLDY    63  37  38 SW15G26   30.08F
MISSOULA       MOCLDY    70  34  27 NW17G26   30.10F
BUTTE          CLEAR     70  21  16 W20G29    30.08S
MULLAN PASS    CLOUDY    45  37  74 SW10G22   30.19S
* ESSEX        N/A       57  34  42 SW6G11     N/A
* LINCOLN      N/A       65  34  32 SW8G21     N/A
* LOOKOUT PASS N/A       52  39  61 SE9G14     N/A
* POLSON       N/A       62  37  40 W3G12      N/A
* RONAN APT    PTCLDY    64  37  37 N/A        N/A
* SEELEY LAKE  N/A       64  34  33 NW11G20    N/A
* THOMP F APT  MOCLDY    78  21  12 S17G27     N/A
$$

MTZ008-052>055-250000-
SOUTHWEST MONTANA
CITY           SKY/WX    TMP DP  RH WIND       PRES   REMARKS
BOZEMAN        CLEAR     77  43  30 NW13      29.98R
DILLON         CLEAR     75  28  18 W15       30.03S
W YELLOWSTONE  PTCLDY    73  28  19 SW23G37   30.12S
* THREE FORKS  CLEAR     81  43  26 N18G26     N/A
* BOULDER HILL N/A       70  33  26 S6G13      N/A
* RAYNOLDS PAS N/A       76  58  54 S21G27     N/A
* WHITEHALL    N/A       81  35  19 NW18G27    N/A
* WISE RIVER   N/A       68  27  21 NW19G27    N/A
$$

MTZ009>010-012-014-046-048-049-054-250000-
EAST SLOPES AND CENTRAL MONTANA
CITY           SKY/WX    TMP DP  RH WIND       PRES   REMARKS
CUT BANK       PTCLDY    64  36  35 W35G46    29.94S
GREAT FALLS    CLEAR     73  27  18 W22G32    29.94S
HELENA         CLEAR     75  28  18 W21G31    30.01F
MALMSTROM AFB  CLEAR     73  27  18 W23G35    29.95F
* CONRAD       CLEAR     70  36  29 SW18G25    N/A
* DEARBORN     N/A       71  29  21 S21G29     N/A
* EAST GLACIER N/A       54  34  47 W25G34     N/A
* MONARCH      N/A       68  20  16 W30G39     N/A
* SAINT MARY   N/A       56  34  44 SW14G32    N/A
* SWEET GRASS  N/A       67  31  26 W21G36     N/A
$$

MTZ011-013-016-021-035-040-045-047-050-051-250000-
NORTH CENTRAL MONTANA
CITY           SKY/WX    TMP DP  RH WIND       PRES   REMARKS
HAVRE          PTCLDY    73  39  29 W25       29.86F
LEWISTOWN      PTCLDY    72  43  35 N12G26    29.93F
* CHESTER      N/A       69  33  26 W20G34     N/A
* DENTON       N/A       78  36  22 W24G44     N/A
* JUDITH GAP   N/A       74  48  40 N19G30     N/A
* LOMA         N/A       75  29  18 SW22G35    N/A
$$

MTZ017>020-022>027-061-062-250000-
NORTHEAST MONTANA
CITY           SKY/WX    TMP DP  RH WIND       PRES   REMARKS
GLASGOW        MOCLDY    88  61  40 W26G36    29.65R HI  88
GLENDIVE       PTCLDY    95  61  32 S9        29.65F
JORDAN         CLOUDY    82  70  67 NW12      29.69R HI  86
SIDNEY         CLEAR    N/A N/A N/A SE10      29.66F
WOLF POINT     MOCLDY    93  61  34 S3        29.61F
* BEAVER HILL  N/A       85  68  57 E18        N/A   HI  88
* CIRCLE       N/A       95  61  32 S5         N/A
* LINDSAY DVD  N/A       91  61  37 SE6G14     N/A
* NAVAJO       N/A       84  64  51 SE12G20    N/A   HI  85
$$

MTZ028>042-056>058-250000-
SOUTHCENTRAL AND SOUTHEAST MONTANA
CITY           SKY/WX    TMP DP  RH WIND       PRES   REMARKS
BAKER          CLEAR     91  64  41 E14       29.70F HI  93
BILLINGS       FAIR      93  45  19 NW31G41   29.79R
LIVINGSTON     PTCLDY    86  43  22 W16G28    29.90R
MILES CITY     MOCLDY   100  48  17 W13G21    29.63F
* LAUREL APT   CLEAR     93  45  19 NW16G25    N/A
* ROUNDUP APT  PTCLDY    88  50  27 NW28G35    N/A
* ALZADA       N/A       97  61  30 E2G11      N/A
* HYSHAM       N/A       98  37  12 W20G29     N/A
* LAME DEER    N/A       96  41  15 SW14G28    N/A
* REED POINT   N/A       89  43  20 W22G32     N/A
* ROSCOE HILL  N/A       88  25  10 SW6G24     N/A
$$

REGIONAL REPORTS...DAKOTAS
CITY           SKY/WX    TMP DP  RH WIND       PRES   REMARKS
WILLISTON      CLEAR     86  64  48 S14G20    29.68F HI  87
DICKINSON      CLEAR     82  66  58 SE16      29.72F HI  84
CROSBY         CLEAR     77  72  85 SE13      29.72F
TIOGA          CLEAR     79  68  69 SE6       29.76F
WATFORD CITY   CLEAR     81  66  60 S16G22    29.68F HI  83
BISMARCK       CLOUDY    79  64  60 E14       29.79F
GRAND FORKS    MOCLDY    75  61  62 S14       29.87F
FARGO          CLEAR     79  61  54 S16G28    29.86S
BUFFALO SD     PTCLDY    88  66  48 E12       29.65F HI  90
RAPID CITY     MOCLDY    90  72  56 CALM      29.74F HI  98
$$

REGIONAL REPORTS...WYOMING/IDAHO/WASHINGTON
CITY           SKY/WX    TMP DP  RH WIND       PRES   REMARKS
GILLETTE       MOCLDY    99  36  11 SW18G26   29.78F
SHERIDAN       MOCLDY    91  36  14 SW20G36   29.78R
YELLOWSTONE LA CLEAR     68  28  22 SW10G21   30.24F
SALMON         CLEAR     81  28  14 NE8       29.97S
MULLAN PASS    CLOUDY    45  37  74 SW10G22   30.19S
SAND POINT     CLOUDY    55  50  83 S6        30.11S
SPOKANE        CLOUDY    64  41  43 SW18      30.11F
$$

REGIONAL REPORTS...SASKATCHEWAN
CITY           SKY/WX    TMP DP  RH WIND       PRES   REMARKS
SWIFT CURRENT  TSTM      57  54  90 W22G32    29.80R
MOOSE JAW      LGT RAIN N/A N/A N/A SE17       N/A

$$




USA.gov is the U.S. government's official web portal to all federal, state and local government web resources and services.